^^

..:: Storico WU ::..




Lo storico viene creato da WUnderground con i dati che la stazione Meteomincio invia al loro server. L' aggiornamento viene fatto ogni 5 minuti circa, tuttavia possono esserci intervalli pił ampi a causa di errori, interruzioni di servizio o problemi nell' invio tramite FTP.


Storico stazione MeteoMincio
Giorno Sommario per Febbario 25, 2022 Unità:  Inglese    Metrico   Entrambi
Giorno Settimana Mese Anno
  Max: Min: Media:
Temperatura: 59 °F 33.8 °F 46.6 °F
Dew Point: 46.4 °F 32 °F 39 °F
Umidità: 94% 54% 77%
Velocità vento: 24.9mph 0.6mph 5mph
Raffica: 34.8mph - -
Direzione- - SSE
Pressione: 30.3 in 30 in -
Precipitazioni: 0.01 in    
 
 
Tabulato Dati per Febbario 25, 2022
Ora Temperatura Dew Point Pressione Direzione Velocità vento Raffica Umidità Intensità pioggia (oraria) Info solare Situazione
00:04 37.4 °F 33.8 °F 30.1 in West 3.1 mph 3.7 mph 87% 0 in 0.00 W/m2 unknown
00:09 39.2 °F 35.6 °F 30.1 in WSW 3.1 mph 3.7 mph 88% 0 in 0.00 W/m2 unknown
00:14 39.2 °F 35.6 °F 30.1 in WSW 3.1 mph 3.7 mph 87% 0 in 0.00 W/m2 unknown
00:19 39.2 °F 35.6 °F 30.1 in WSW 3.1 mph 3.7 mph 87% 0 in 0.00 W/m2 unknown
00:24 39.2 °F 35.6 °F 30.1 in WSW 3.1 mph 3.7 mph 87% 0 in 0.00 W/m2 unknown
00:29 39.2 °F 35.6 °F 30.1 in WSW 3.1 mph 3.7 mph 88% 0 in 0.00 W/m2 unknown
00:34 39.2 °F 35.6 °F 30.1 in WSW 3.1 mph 5 mph 88% 0 in 0.00 W/m2 unknown
00:39 39.2 °F 35.6 °F 30.1 in WSW 3.7 mph 5 mph 87% 0 in 0.00 W/m2 unknown
00:44 39.2 °F 35.6 °F 30.1 in WSW 3.7 mph 5 mph 88% 0 in 0.00 W/m2 unknown
00:49 39.2 °F 35.6 °F 30.1 in WSW 4.3 mph 5 mph 88% 0 in 0.00 W/m2 unknown
00:54 39.2 °F 35.6 °F 30.1 in WSW 4.3 mph 6.2 mph 88% 0 in 0.00 W/m2 unknown
00:59 39.2 °F 35.6 °F 30.1 in WSW 5 mph 6.2 mph 88% 0 in 0.00 W/m2 unknown
01:04 39.2 °F 35.6 °F 30.1 in WSW 5 mph 6.2 mph 88% 0 in 0.00 W/m2 unknown
01:09 39.2 °F 35.6 °F 30.1 in WSW 4.3 mph 6.2 mph 88% 0 in 0.00 W/m2 unknown
01:14 37.4 °F 35.6 °F 30.1 in WSW 4.3 mph 6.2 mph 88% 0 in 0.00 W/m2 unknown
01:19 37.4 °F 35.6 °F 30.1 in WSW 4.3 mph 6.2 mph 88% 0 in 0.00 W/m2 unknown
01:24 39.2 °F 35.6 °F 30.1 in WSW 3.7 mph 6.2 mph 88% 0 in 0.00 W/m2 unknown
01:29 37.4 °F 35.6 °F 30.1 in WSW 3.7 mph 5 mph 88% 0 in 0.00 W/m2 unknown
01:34 37.4 °F 35.6 °F 30.1 in WSW 3.1 mph 5 mph 88% 0 in 0.00 W/m2 unknown
01:39 37.4 °F 35.6 °F 30.1 in WSW 3.7 mph 5 mph 88% 0 in 0.00 W/m2 unknown
01:44 37.4 °F 35.6 °F 30.1 in WSW 3.1 mph 3.7 mph 88% 0 in 0.00 W/m2 unknown
01:49 37.4 °F 35.6 °F 30.1 in WSW 3.1 mph 3.7 mph 88% 0 in 0.00 W/m2 unknown
01:54 37.4 °F 35.6 °F 30.1 in WSW 3.1 mph 3.7 mph 88% 0 in 0.00 W/m2 unknown
01:59 37.4 °F 35.6 °F 30.1 in WSW 3.7 mph 5 mph 88% 0 in 0.00 W/m2 unknown
02:04 39.2 °F 35.6 °F 30.1 in West 3.1 mph 5 mph 89% 0 in 0.00 W/m2 unknown
02:09 39.2 °F 35.6 °F 30.1 in WSW 3.1 mph 3.7 mph 88% 0 in 0.00 W/m2 unknown
02:14 39.2 °F 35.6 °F 30.1 in WSW 3.1 mph 3.7 mph 87% 0 in 0.00 W/m2 unknown
02:19 37.4 °F 35.6 °F 30.1 in SW 3.1 mph 3.7 mph 88% 0 in 0.00 W/m2 unknown
02:24 39.2 °F 35.6 °F 30.1 in SW 3.1 mph 3.7 mph 88% 0 in 0.00 W/m2 unknown
02:29 39.2 °F 35.6 °F 30.1 in SW 3.1 mph 3.7 mph 88% 0 in 0.00 W/m2 unknown
02:34 39.2 °F 35.6 °F 30.1 in WSW 3.7 mph 6.8 mph 87% 0 in 0.00 W/m2 unknown
02:39 37.4 °F 33.8 °F 30.1 in SW 3.7 mph 6.8 mph 88% 0 in 0.00 W/m2 unknown
02:44 39.2 °F 35.6 °F 30.1 in SW 3.7 mph 6.8 mph 89% 0 in 0.00 W/m2 unknown
02:49 39.2 °F 35.6 °F 30.1 in WSW 3.7 mph 6.2 mph 88% 0 in 0.00 W/m2 unknown
02:54 39.2 °F 35.6 °F 30.1 in WSW 3.7 mph 5 mph 88% 0 in 0.00 W/m2 unknown
02:59 39.2 °F 35.6 °F 30.1 in WSW 2.5 mph 5 mph 88% 0 in 0.00 W/m2 unknown
03:04 39.2 °F 35.6 °F 30.1 in WSW 2.5 mph 3.7 mph 88% 0 in 0.00 W/m2 unknown
03:09 39.2 °F 35.6 °F 30.1 in WSW 2.5 mph 3.7 mph 88% 0 in 0.00 W/m2 unknown
03:14 39.2 °F 35.6 °F 30 in West 3.1 mph 3.7 mph 88% 0 in 0.00 W/m2 unknown
03:19 39.2 °F 35.6 °F 30.1 in West 3.7 mph 4.3 mph 87% 0 in 0.00 W/m2 unknown
03:24 39.2 °F 35.6 °F 30.1 in West 3.7 mph 3.7 mph 87% 0 in 0.00 W/m2 unknown
03:29 37.4 °F 35.6 °F 30.1 in WSW 3.1 mph 3.7 mph 87% 0 in 0.00 W/m2 unknown
03:34 37.4 °F 33.8 °F 30 in WSW 3.7 mph 5 mph 88% 0 in 0.00 W/m2 unknown
03:39 37.4 °F 33.8 °F 30 in SW 4.3 mph 5 mph 89% 0 in 0.00 W/m2 unknown
03:44 37.4 °F 33.8 °F 30 in West 3.1 mph 5 mph 89% 0 in 0.00 W/m2 unknown
03:49 37.4 °F 35.6 °F 30 in West 2.5 mph 5 mph 89% 0 in 0.00 W/m2 unknown
03:54 37.4 °F 35.6 °F 30 in West 3.1 mph 3.7 mph 88% 0 in 0.00 W/m2 unknown
03:59 37.4 °F 33.8 °F 30 in WNW 1.9 mph 3.7 mph 89% 0 in 0.00 W/m2 unknown
04:04 37.4 °F 33.8 °F 30 in WNW 1.9 mph 3.1 mph 89% 0 in 0.00 W/m2 unknown
04:09 37.4 °F 35.6 °F 30 in WNW 1.9 mph 3.1 mph 89% 0 in 0.00 W/m2 unknown
04:14 37.4 °F 33.8 °F 30 in West 2.5 mph 3.7 mph 88% 0 in 0.00 W/m2 unknown
04:19 35.6 °F 33.8 °F 30 in West 3.1 mph 3.7 mph 89% 0 in 0.00 W/m2 unknown
04:24 35.6 °F 33.8 °F 30 in West 3.1 mph 3.7 mph 90% 0 in 0.00 W/m2 unknown
04:29 35.6 °F 33.8 °F 30 in West 3.1 mph 3.7 mph 90% 0 in 0.00 W/m2 unknown
04:34 37.4 °F 33.8 °F 30 in West 3.1 mph 3.7 mph 90% 0 in 0.00 W/m2 unknown
04:39 37.4 °F 33.8 °F 30 in West 2.5 mph 3.7 mph 90% 0 in 0.00 W/m2 unknown
04:44 37.4 °F 33.8 °F 30 in West 2.5 mph 3.7 mph 89% 0 in 0.00 W/m2 unknown
04:49 35.6 °F 33.8 °F 30 in West 3.1 mph 3.7 mph 90% 0 in 0.00 W/m2 unknown
04:54 35.6 °F 33.8 °F 30 in WSW 3.7 mph 3.7 mph 90% 0 in 0.00 W/m2 unknown
04:59 35.6 °F 33.8 °F 30 in WSW 3.7 mph 3.7 mph 90% 0 in 0.00 W/m2 unknown
05:04 35.6 °F 33.8 °F 30 in WSW 3.7 mph 3.7 mph 91% 0 in 0.00 W/m2 unknown
05:09 35.6 °F 33.8 °F 30 in WSW 3.1 mph 3.7 mph 91% 0 in 0.00 W/m2 unknown
05:14 37.4 °F 33.8 °F 30 in WSW 3.1 mph 3.7 mph 91% 0 in 0.00 W/m2 unknown
05:19 37.4 °F 33.8 °F 30 in WSW 3.7 mph 3.7 mph 91% 0 in 0.00 W/m2 unknown
05:24 37.4 °F 33.8 °F 30 in WSW 3.1 mph 3.7 mph 90% 0 in 0.00 W/m2 unknown
05:29 37.4 °F 33.8 °F 30 in WSW 3.1 mph 3.7 mph 90% 0 in 0.00 W/m2 unknown
05:34 37.4 °F 33.8 °F 30 in WSW 3.1 mph 3.7 mph 90% 0 in 0.00 W/m2 unknown
05:39 37.4 °F 33.8 °F 30 in WSW 2.5 mph 3.7 mph 90% 0 in 0.00 W/m2 unknown
05:44 37.4 °F 33.8 °F 30 in WSW 2.5 mph 3.7 mph 90% 0 in 0.00 W/m2 unknown
05:49 37.4 °F 33.8 °F 30 in WSW 1.9 mph 3.7 mph 90% 0 in 0.00 W/m2 unknown
05:54 37.4 °F 33.8 °F 30 in ENE 2.5 mph 3.7 mph 90% 0 in 0.00 W/m2 unknown
05:59 35.6 °F 33.8 °F 30 in ENE 1.2 mph 3.1 mph 90% 0 in 0.00 W/m2 unknown
06:04 35.6 °F 33.8 °F 30 in ENE 1.2 mph 2.5 mph 91% 0 in 0.00 W/m2 unknown
06:09 35.6 °F 33.8 °F 30 in ENE 0.6 mph 1.2 mph 91% 0 in 0.00 W/m2 unknown
06:14 35.6 °F 33.8 °F 30 in NNW 1.9 mph 3.1 mph 91% 0 in 0.00 W/m2 unknown
06:19 35.6 °F 33.8 °F 30 in West 2.5 mph 3.7 mph 91% 0 in 0.00 W/m2 unknown
06:24 35.6 °F 33.8 °F 30 in West 2.5 mph 3.7 mph 91% 0 in 0.00 W/m2 unknown
06:29 35.6 °F 33.8 °F 30 in West 2.5 mph 3.7 mph 92% 0 in 0.00 W/m2 unknown
06:34 35.6 °F 33.8 °F 30 in West 2.5 mph 3.7 mph 91% 0 in 0.00 W/m2 unknown
06:39 35.6 °F 33.8 °F 30 in West 1.9 mph 2.5 mph 91% 0 in 0.00 W/m2 unknown
06:44 35.6 °F 33.8 °F 30 in West 1.9 mph 2.5 mph 91% 0 in 0.00 W/m2 unknown
06:49 35.6 °F 33.8 °F 30.1 in WNW 1.9 mph 2.5 mph 91% 0 in 0.00 W/m2 unknown
06:54 35.6 °F 33.8 °F 30.1 in WNW 1.9 mph 3.7 mph 91% 0 in 0.00 W/m2 unknown
06:59 35.6 °F 32 °F 30.1 in WNW 3.1 mph 3.7 mph 91% 0 in 0.00 W/m2 unknown
07:04 35.6 °F 33.8 °F 30.1 in WNW 3.1 mph 3.7 mph 92% 0 in 0.00 W/m2 unknown
07:09 35.6 °F 33.8 °F 30.1 in WNW 1.2 mph 3.1 mph 92% 0 in 7.00 W/m2 unknown
07:14 35.6 °F 33.8 °F 30.1 in NW 1.2 mph 1.9 mph 91% 0 in 9.00 W/m2 unknown
07:19 35.6 °F 33.8 °F 30.1 in NW 1.2 mph 2.5 mph 91% 0 in 12.00 W/m2 unknown
07:24 35.6 °F 33.8 °F 30.1 in North 1.2 mph 3.1 mph 91% 0 in 18.00 W/m2 unknown
07:29 35.6 °F 33.8 °F 30.1 in East 3.7 mph 5 mph 91% 0 in 21.00 W/m2 unknown
07:34 35.6 °F 32 °F 30.1 in ENE 3.1 mph 5 mph 92% 0 in 26.00 W/m2 unknown
07:39 33.8 °F 32 °F 30.1 in ENE 2.5 mph 5 mph 93% 0 in 33.00 W/m2 unknown
07:44 35.6 °F 33.8 °F 30.1 in ENE 3.1 mph 3.7 mph 94% 0 in 40.00 W/m2 unknown
07:49 35.6 °F 33.8 °F 30.1 in East 1.9 mph 3.7 mph 94% 0 in 51.00 W/m2 unknown
07:54 35.6 °F 33.8 °F 30.1 in SE 1.9 mph 3.7 mph 94% 0 in 58.00 W/m2 unknown
07:59 35.6 °F 33.8 °F 30.1 in ESE 1.9 mph 3.1 mph 94% 0 in 69.00 W/m2 unknown
08:04 35.6 °F 33.8 °F 30.1 in ESE 1.9 mph 3.7 mph 94% 0 in 77.00 W/m2 unknown
08:09 35.6 °F 33.8 °F 30.1 in ESE 1.9 mph 3.1 mph 93% 0 in 90.00 W/m2 unknown
08:14 37.4 °F 35.6 °F 30.1 in East 1.9 mph 3.7 mph 93% 0 in 102.00 W/m2 unknown
08:19 37.4 °F 35.6 °F 30.1 in East 1.9 mph 3.7 mph 93% 0 in 114.00 W/m2 unknown
08:24 37.4 °F 35.6 °F 30.1 in ENE 2.5 mph 3.7 mph 92% 0 in 127.00 W/m2 unknown
08:29 37.4 °F 35.6 °F 30.1 in East 1.2 mph 3.7 mph 92% 0 in 139.00 W/m2 unknown
08:34 39.2 °F 35.6 °F 30.1 in East 1.9 mph 3.7 mph 92% 0 in 149.00 W/m2 unknown
08:39 39.2 °F 37.4 °F 30.1 in ESE 1.2 mph 3.1 mph 92% 0 in 163.00 W/m2 unknown
08:44 39.2 °F 37.4 °F 30.1 in ESE 1.9 mph 3.7 mph 91% 0 in 176.00 W/m2 unknown
08:49 41 °F 37.4 °F 30.1 in ESE 1.2 mph 3.1 mph 91% 0 in 186.00 W/m2 unknown
08:54 41 °F 37.4 °F 30.1 in ESE 2.5 mph 3.7 mph 90% 0 in 200.00 W/m2 unknown
08:59 41 °F 39.2 °F 30.1 in East 1.9 mph 3.7 mph 90% 0 in 213.00 W/m2 unknown
09:04 41 °F 39.2 °F 30.1 in East 1.9 mph 3.1 mph 90% 0 in 225.00 W/m2 unknown
09:09 42.8 °F 39.2 °F 30.1 in East 2.5 mph 3.7 mph 89% 0 in 236.00 W/m2 unknown
09:14 42.8 °F 39.2 °F 30.1 in East 2.5 mph 3.7 mph 89% 0 in 250.00 W/m2 unknown
09:19 42.8 °F 39.2 °F 30.1 in ESE 3.1 mph 3.7 mph 89% 0 in 262.00 W/m2 unknown
09:24 44.6 °F 39.2 °F 30.1 in East 3.1 mph 3.7 mph 87% 0 in 276.00 W/m2 unknown
09:29 44.6 °F 39.2 °F 30.1 in ESE 2.5 mph 5 mph 85% 0 in 288.00 W/m2 unknown
09:34 44.6 °F 41 °F 30.1 in SSW 1.9 mph 5 mph 86% 0 in 306.00 W/m2 unknown
09:39 44.6 °F 41 °F 30.1 in SW 1.2 mph 3.7 mph 86% 0 in 309.00 W/m2 unknown
09:44 44.6 °F 41 °F 30.1 in WSW 2.5 mph 3.7 mph 85% 0 in 320.00 W/m2 unknown
09:49 44.6 °F 41 °F 30.1 in West 1.9 mph 3.7 mph 85% 0 in 334.00 W/m2 unknown
09:54 46.4 °F 41 °F 30.1 in WNW 1.2 mph 2.5 mph 86% 0 in 348.00 W/m2 unknown
09:59 46.4 °F 41 °F 30.1 in NW 1.2 mph 2.5 mph 85% 0 in 360.00 W/m2 unknown
10:04 46.4 °F 42.8 °F 30.1 in NNW 1.2 mph 2.5 mph 83% 0 in 369.00 W/m2 unknown
10:09 46.4 °F 42.8 °F 30.1 in NNW 1.2 mph 2.5 mph 83% 0 in 381.00 W/m2 unknown
10:14 48.2 °F 42.8 °F 30.1 in ESE 3.1 mph 3.7 mph 81% 0 in 394.00 W/m2 unknown
10:19 48.2 °F 41 °F 30.1 in ESE 1.9 mph 3.7 mph 80% 0 in 397.00 W/m2 unknown
10:24 48.2 °F 42.8 °F 30.1 in SW 1.9 mph 3.7 mph 81% 0 in 410.00 W/m2 unknown
10:29 48.2 °F 42.8 °F 30.1 in SW 2.5 mph 3.7 mph 81% 0 in 418.00 W/m2 unknown
10:34 48.2 °F 42.8 °F 30.1 in SSW 3.1 mph 3.7 mph 80% 0 in 427.00 W/m2 unknown
10:39 48.2 °F 42.8 °F 30.1 in SSW 1.9 mph 3.7 mph 79% 0 in 436.00 W/m2 unknown
10:44 50 °F 42.8 °F 30.1 in SSE 5 mph 6.2 mph 80% 0 in 446.00 W/m2 unknown
10:49 50 °F 41 °F 30.1 in East 5.6 mph 8.1 mph 73% 0 in 454.00 W/m2 unknown
10:54 50 °F 42.8 °F 30.1 in East 6.2 mph 8.1 mph 73% 0 in 462.00 W/m2 unknown
10:59 51.8 °F 42.8 °F 30.1 in ENE 5.6 mph 8.1 mph 73% 0 in 466.00 W/m2 unknown
11:04 51.8 °F 42.8 °F 30.1 in ESE 5 mph 6.8 mph 72% 0 in 476.00 W/m2 unknown
11:09 51.8 °F 42.8 °F 30.1 in ESE 6.2 mph 8.1 mph 72% 0 in 476.00 W/m2 unknown
11:14 51.8 °F 42.8 °F 30.1 in East 6.2 mph 8.1 mph 71% 0 in 487.00 W/m2 unknown
11:19 51.8 °F 42.8 °F 30.1 in East 6.2 mph 8.1 mph 72% 0 in 496.00 W/m2 unknown
11:24 51.8 °F 42.8 °F 30.1 in ENE 5 mph 8.1 mph 71% 0 in 497.00 W/m2 unknown
11:29 51.8 °F 42.8 °F 30.1 in ENE 3.7 mph 8.1 mph 71% 0 in 503.00 W/m2 unknown
11:34 51.8 °F 42.8 °F 30.1 in ENE 4.3 mph 6.8 mph 71% 0 in 512.00 W/m2 unknown
11:39 53.6 °F 42.8 °F 30.1 in East 5 mph 6.8 mph 71% 0 in 512.00 W/m2 unknown
11:44 53.6 °F 42.8 °F 30.1 in East 5 mph 6.8 mph 68% 0 in 510.00 W/m2 unknown
11:49 53.6 °F 42.8 °F 30.1 in ENE 5.6 mph 6.8 mph 68% 0 in 527.00 W/m2 unknown
11:54 53.6 °F 42.8 °F 30.1 in ENE 3.1 mph 6.8 mph 69% 0 in 522.00 W/m2 unknown
11:59 53.6 °F 44.6 °F 30.1 in NE 3.1 mph 5 mph 69% 0 in 520.00 W/m2 unknown
12:04 53.6 °F 44.6 °F 30.1 in East 3.7 mph 5 mph 68% 0 in 526.00 W/m2 unknown
12:09 53.6 °F 42.8 °F 30.1 in ESE 3.1 mph 5 mph 67% 0 in 529.00 W/m2 unknown
12:14 53.6 °F 44.6 °F 30.1 in WSW 1.2 mph 3.7 mph 68% 0 in 529.00 W/m2 unknown
12:19 55.4 °F 44.6 °F 30.1 in SSE 1.9 mph 3.7 mph 67% 0 in 529.00 W/m2 unknown
12:24 55.4 °F 44.6 °F 30.1 in ESE 3.7 mph 5 mph 67% 0 in 531.00 W/m2 unknown
12:29 53.6 °F 44.6 °F 30.1 in SE 3.1 mph 5 mph 69% 0 in 536.00 W/m2 unknown
12:34 55.4 °F 44.6 °F 30.1 in ENE 4.3 mph 8.1 mph 69% 0 in 536.00 W/m2 unknown
12:39 55.4 °F 44.6 °F 30.1 in East 3.1 mph 8.1 mph 68% 0 in 534.00 W/m2 unknown
12:44 55.4 °F 44.6 °F 30.1 in ENE 3.1 mph 5 mph 68% 0 in 536.00 W/m2 unknown
12:49 55.4 °F 44.6 °F 30.1 in ENE 5 mph 6.8 mph 66% 0 in 538.00 W/m2 unknown
12:54 55.4 °F 44.6 °F 30.1 in ESE 5.6 mph 6.8 mph 67% 0 in 536.00 W/m2 unknown
12:59 55.4 °F 44.6 °F 30.1 in ENE 3.1 mph 6.8 mph 67% 0 in 540.00 W/m2 unknown
13:04 57.2 °F 46.4 °F 30.1 in NNE 3.7 mph 5 mph 67% 0 in 538.00 W/m2 unknown
13:09 57.2 °F 44.6 °F 30.1 in SW 2.5 mph 5 mph 65% 0 in 536.00 W/m2 unknown
13:14 55.4 °F 44.6 °F 30.1 in SW 1.9 mph 3.7 mph 66% 0 in 534.00 W/m2 unknown
13:19 57.2 °F 44.6 °F 30.1 in SSW 2.5 mph 3.7 mph 65% 0 in 534.00 W/m2 unknown
13:24 57.2 °F 44.6 °F 30.1 in SSW 1.9 mph 3.7 mph 66% 0 in 534.00 W/m2 unknown
13:29 57.2 °F 44.6 °F 30.1 in WNW 3.7 mph 3.7 mph 63% 0 in 527.00 W/m2 unknown
13:34 57.2 °F 44.6 °F 30 in WNW 4.3 mph 5 mph 61% 0 in 520.00 W/m2 unknown
13:39 57.2 °F 44.6 °F 30 in West 3.1 mph 5 mph 60% 0 in 519.00 W/m2 unknown
13:44 57.2 °F 44.6 °F 30 in NNW 3.7 mph 5 mph 61% 0 in 515.00 W/m2 unknown
13:49 57.2 °F 44.6 °F 30 in NNW 2.5 mph 5 mph 63% 0 in 506.00 W/m2 unknown
13:54 59 °F 44.6 °F 30 in WNW 3.1 mph 3.7 mph 61% 0 in 501.00 W/m2 unknown
13:59 59 °F 44.6 °F 30 in NNW 2.5 mph 3.7 mph 60% 0 in 492.00 W/m2 unknown
14:04 59 °F 44.6 °F 30 in North 4.3 mph 6.2 mph 60% 0 in 487.00 W/m2 unknown
14:09 59 °F 44.6 °F 30 in NE 3.7 mph 6.2 mph 60% 0 in 483.00 W/m2 unknown
14:14 59 °F 44.6 °F 30 in East 3.1 mph 5 mph 60% 0 in 475.00 W/m2 unknown
14:19 57.2 °F 44.6 °F 30 in ENE 2.5 mph 5 mph 61% 0 in 473.00 W/m2 unknown
14:24 57.2 °F 44.6 °F 30 in ESE 1.9 mph 5 mph 60% 0 in 462.00 W/m2 unknown
14:29 59 °F 44.6 °F 30 in West 2.5 mph 3.7 mph 59% 0 in 455.00 W/m2 unknown
14:34 59 °F 44.6 °F 30 in SE 4.3 mph 6.8 mph 58% 0 in 448.00 W/m2 unknown
14:39 59 °F 44.6 °F 30 in NE 5 mph 6.8 mph 60% 0 in 439.00 W/m2 unknown
14:44 59 °F 44.6 °F 30 in North 5 mph 6.8 mph 59% 0 in 432.00 W/m2 unknown
14:49 59 °F 44.6 °F 30 in ENE 3.7 mph 6.8 mph 57% 0 in 413.00 W/m2 unknown
14:54 59 °F 42.8 °F 30 in SSE 4.3 mph 6.8 mph 57% 0 in 413.00 W/m2 unknown
14:59 59 °F 42.8 °F 30 in SSE 5 mph 6.8 mph 57% 0 in 404.00 W/m2 unknown
15:04 59 °F 44.6 °F 30 in ESE 3.7 mph 5 mph 58% 0 in 396.00 W/m2 unknown
15:09 59 °F 42.8 °F 30 in SSE 2.5 mph 5 mph 57% 0 in 376.00 W/m2 unknown
15:14 59 °F 42.8 °F 30 in South 3.7 mph 5 mph 56% 0 in 380.00 W/m2 unknown
15:19 59 °F 42.8 °F 30 in South 3.7 mph 5 mph 57% 0 in 371.00 W/m2 unknown
15:24 59 °F 42.8 °F 30 in SSW 3.1 mph 5 mph 56% 0 in 343.00 W/m2 unknown
15:29 59 °F 42.8 °F 30 in WSW 3.1 mph 5 mph 55% 0 in 332.00 W/m2 unknown
15:34 59 °F 42.8 °F 30 in NW 1.9 mph 5 mph 54% 0 in 325.00 W/m2 unknown
15:39 59 °F 42.8 °F 30 in SW 1.9 mph 3.7 mph 54% 0 in 320.00 W/m2 unknown
15:44 59 °F 42.8 °F 30 in SW 2.5 mph 3.7 mph 56% 0 in 316.00 W/m2 unknown
15:49 59 °F 42.8 °F 30 in ESE 3.1 mph 5 mph 57% 0 in 306.00 W/m2 unknown
15:54 59 °F 44.6 °F 30 in ESE 3.1 mph 5 mph 58% 0 in 288.00 W/m2 unknown
15:59 59 °F 44.6 °F 30 in East 2.5 mph 3.7 mph 58% 0 in 276.00 W/m2 unknown
16:04 59 °F 42.8 °F 30 in ESE 3.7 mph 5 mph 57% 0 in 262.00 W/m2 unknown
16:09 59 °F 42.8 °F 30 in ENE 3.7 mph 5 mph 57% 0 in 246.00 W/m2 unknown
16:14 59 °F 42.8 °F 30 in ENE 5.6 mph 8.7 mph 57% 0 in 234.00 W/m2 unknown
16:19 59 °F 42.8 °F 30 in NE 6.2 mph 9.3 mph 56% 0 in 220.00 W/m2 unknown
16:24 59 °F 42.8 °F 30 in ENE 3.1 mph 8.7 mph 57% 0 in 197.00 W/m2 unknown
16:29 59 °F 42.8 °F 30 in North 3.7 mph 5 mph 56% 0 in 188.00 W/m2 unknown
16:34 59 °F 42.8 °F 30 in NE 3.1 mph 5 mph 57% 0 in 172.00 W/m2 unknown
16:39 59 °F 42.8 °F 30 in NE 3.1 mph 3.7 mph 57% 0 in 158.00 W/m2 unknown
16:44 57.2 °F 42.8 °F 30 in NNE 2.5 mph 3.7 mph 57% 0 in 142.00 W/m2 unknown
16:49 57.2 °F 42.8 °F 30 in NNE 4.3 mph 6.2 mph 59% 0 in 127.00 W/m2 unknown
16:54 57.2 °F 42.8 °F 30 in ENE 3.7 mph 6.2 mph 59% 0 in 111.00 W/m2 unknown
16:59 57.2 °F 42.8 °F 30 in ENE 5 mph 6.8 mph 59% 0 in 98.00 W/m2 unknown
17:04 57.2 °F 42.8 °F 30 in ENE 5.6 mph 6.8 mph 61% 0 in 88.00 W/m2 unknown
17:09 57.2 °F 42.8 °F 30 in ENE 5 mph 6.8 mph 61% 0 in 81.00 W/m2 unknown
17:14 57.2 °F 42.8 °F 30 in ENE 5 mph 8.1 mph 61% 0 in 79.00 W/m2 unknown
17:19 57.2 °F 42.8 °F 30 in ENE 5 mph 8.1 mph 62% 0 in 77.00 W/m2 unknown
17:24 55.4 °F 42.8 °F 30 in ENE 5.6 mph 6.8 mph 62% 0 in 60.00 W/m2 unknown
17:29 55.4 °F 42.8 °F 30 in ENE 5.6 mph 8.1 mph 62% 0 in 44.00 W/m2 unknown
17:34 55.4 °F 42.8 °F 30 in ENE 6.2 mph 8.1 mph 63% 0 in 26.00 W/m2 unknown
17:39 55.4 °F 42.8 °F 30 in ENE 5 mph 8.1 mph 64% 0 in 21.00 W/m2 unknown
17:44 55.4 °F 42.8 °F 30 in ENE 5 mph 8.1 mph 64% 0 in 16.00 W/m2 unknown
17:49 55.4 °F 42.8 °F 30 in ENE 5 mph 6.8 mph 64% 0 in 11.00 W/m2 unknown
17:54 55.4 °F 42.8 °F 30 in ENE 4.3 mph 6.8 mph 64% 0 in 7.00 W/m2 unknown
17:59 53.6 °F 42.8 °F 30 in ENE 4.3 mph 5 mph 65% 0 in 0.00 W/m2 unknown
18:04 53.6 °F 42.8 °F 30 in ENE 4.3 mph 8.1 mph 66% 0 in 0.00 W/m2 unknown
18:09 53.6 °F 42.8 °F 30 in ENE 3.7 mph 8.1 mph 66% 0 in 0.00 W/m2 unknown
18:14 53.6 °F 42.8 °F 30.1 in ENE 4.3 mph 5 mph 65% 0 in 0.00 W/m2 unknown
18:19 53.6 °F 42.8 °F 30.1 in ENE 4.3 mph 6.8 mph 65% 0 in 0.00 W/m2 unknown
18:24 53.6 °F 42.8 °F 30.1 in ENE 3.7 mph 4.3 mph 65% 0 in 0.00 W/m2 unknown
18:29 53.6 °F 42.8 °F 30.1 in NE 3.7 mph 5 mph 65% 0 in 0.00 W/m2 unknown
18:34 53.6 °F 42.8 °F 30.1 in NE 3.7 mph 5 mph 65% 0 in 0.00 W/m2 unknown
18:39 53.6 °F 42.8 °F 30.1 in NE 4.3 mph 5 mph 65% 0 in 0.00 W/m2 unknown
18:44 53.6 °F 42.8 °F 30.1 in NE 5 mph 6.2 mph 66% 0 in 0.00 W/m2 unknown
18:49 53.6 °F 42.8 °F 30.1 in NE 5 mph 6.2 mph 67% 0 in 0.00 W/m2 unknown
18:54 53.6 °F 42.8 °F 30.1 in NE 4.3 mph 5 mph 67% 0 in 0.00 W/m2 unknown
18:59 53.6 °F 42.8 °F 30.1 in NNE 5 mph 6.2 mph 68% 0 in 0.00 W/m2 unknown
19:04 53.6 °F 42.8 °F 30.1 in NNE 5 mph 6.2 mph 68% 0 in 0.00 W/m2 unknown
19:09 53.6 °F 42.8 °F 30.1 in North 14.3 mph 21.7 mph 69% 0 in 0.00 W/m2 unknown
19:14 53.6 °F 41 °F 30.1 in North 14.9 mph 24.2 mph 65% 0 in 0.00 W/m2 unknown
19:19 51.8 °F 41 °F 30.1 in North 14.3 mph 24.2 mph 70% 0 in 0.00 W/m2 unknown
19:24 50 °F 41 °F 30.1 in North 13 mph 21.7 mph 70% 0 in 0.00 W/m2 unknown
19:29 50 °F 41 °F 30.1 in North 12.4 mph 19.9 mph 70% 0 in 0.00 W/m2 unknown
19:34 50 °F 39.2 °F 30.1 in North 16.8 mph 24.2 mph 69% 0 in 0.00 W/m2 unknown
19:39 50 °F 39.2 °F 30.1 in North 14.3 mph 24.2 mph 68% 0 in 0.00 W/m2 unknown
19:44 50 °F 39.2 °F 30.1 in North 13 mph 19.9 mph 66% 0 in 0.00 W/m2 unknown
19:49 50 °F 39.2 °F 30.1 in North 18 mph 25.5 mph 66% 0 in 0.00 W/m2 unknown
19:54 50 °F 39.2 °F 30.1 in NNE 16.8 mph 23 mph 67% 0 in 0.00 W/m2 unknown
19:59 50 °F 39.2 °F 30.1 in NNE 17.4 mph 23 mph 70% 0 in 0.00 W/m2 unknown
20:04 48.2 °F 39.2 °F 30.1 in NNE 15.5 mph 23 mph 71% 0 in 0.00 W/m2 unknown
20:09 48.2 °F 39.2 °F 30.1 in NNE 14.9 mph 23 mph 71% 0 in 0.00 W/m2 unknown
20:14 48.2 °F 39.2 °F 30.1 in NE 12.4 mph 18 mph 73% 0 in 0.00 W/m2 unknown
20:19 48.2 °F 39.2 °F 30.1 in NE 12.4 mph 17.4 mph 73% 0 in 0.00 W/m2 unknown
20:24 48.2 °F 37.4 °F 30.1 in NNE 11.2 mph 16.8 mph 70% 0 in 0.00 W/m2 unknown
20:29 48.2 °F 37.4 °F 30.1 in NE 11.8 mph 16.2 mph 70% 0 in 0.00 W/m2 unknown
20:34 48.2 °F 37.4 °F 30.1 in NE 11.2 mph 17.4 mph 68% 0 in 0.00 W/m2 unknown
20:39 48.2 °F 37.4 °F 30.1 in NE 9.9 mph 16.8 mph 68% 0 in 0.00 W/m2 unknown
20:44 48.2 °F 37.4 °F 30.1 in NE 8.7 mph 14.3 mph 69% 0 in 0.00 W/m2 unknown
20:49 46.4 °F 37.4 °F 30.1 in NE 8.7 mph 11.8 mph 70% 0 in 0.00 W/m2 unknown
20:54 46.4 °F 37.4 °F 30.1 in ENE 9.3 mph 14.3 mph 69% 0 in 0.00 W/m2 unknown
20:59 46.4 °F 37.4 °F 30.1 in NE 9.3 mph 14.3 mph 69% 0 in 0.00 W/m2 unknown
21:04 46.4 °F 37.4 °F 30.1 in North 6.8 mph 14.3 mph 70% 0 in 0.00 W/m2 unknown
21:09 46.4 °F 37.4 °F 30.1 in NNE 5 mph 8.1 mph 70% 0 in 0.00 W/m2 unknown
21:14 48.2 °F 37.4 °F 30.1 in NE 9.3 mph 14.3 mph 68% 0 in 0.00 W/m2 unknown
21:19 48.2 °F 35.6 °F 30.1 in NE 11.8 mph 16.8 mph 63% 0 in 0.00 W/m2 unknown
21:24 48.2 °F 37.4 °F 30.1 in ENE 19.9 mph 26.7 mph 65% 0 in 0.00 W/m2 unknown
21:29 48.2 °F 39.2 °F 30.2 in ENE 24.9 mph 34.2 mph 71% 0 in 0.00 W/m2 unknown
21:34 48.2 °F 39.2 °F 30.2 in East 23 mph 34.8 mph 70% 0 in 0.00 W/m2 unknown
21:39 46.4 °F 39.2 °F 30.2 in ESE 11.8 mph 34.8 mph 75% 0 in 0.00 W/m2 unknown
21:44 46.4 °F 39.2 °F 30.2 in ESE 14.3 mph 18.6 mph 75% 0.01 in 0.00 W/m2 unknown
21:49 46.4 °F 39.2 °F 30.2 in SE 11.8 mph 18 mph 75% 0.01 in 0.00 W/m2 unknown
21:54 46.4 °F 39.2 °F 30.1 in ESE 9.3 mph 13 mph 75% 0.01 in 0.00 W/m2 unknown
21:59 46.4 °F 37.4 °F 30.1 in ESE 11.2 mph 14.3 mph 73% 0.01 in 0.00 W/m2 unknown
22:04 46.4 °F 37.4 °F 30.1 in ESE 11.8 mph 14.3 mph 68% 0.01 in 0.00 W/m2 unknown
22:09 46.4 °F 37.4 °F 30.2 in East 8.7 mph 14.3 mph 68% 0.01 in 0.00 W/m2 unknown
22:14 46.4 °F 35.6 °F 30.2 in ENE 6.8 mph 14.3 mph 66% 0.01 in 0.00 W/m2 unknown
22:19 46.4 °F 35.6 °F 30.2 in ENE 5 mph 9.9 mph 66% 0.01 in 0.00 W/m2 unknown
22:24 46.4 °F 37.4 °F 30.2 in NNE 7.5 mph 9.9 mph 69% 0.01 in 0.00 W/m2 unknown
22:29 46.4 °F 37.4 °F 30.2 in NE 11.8 mph 14.9 mph 73% 0.01 in 0.00 W/m2 unknown
22:34 46.4 °F 39.2 °F 30.2 in ENE 12.4 mph 17.4 mph 76% 0.01 in 0.00 W/m2 unknown
22:39 46.4 °F 39.2 °F 30.2 in ENE 10.6 mph 16.8 mph 77% 0.01 in 0.00 W/m2 unknown
22:44 46.4 °F 39.2 °F 30.2 in ENE 10.6 mph 14.9 mph 79% 0.01 in 0.00 W/m2 unknown
22:49 44.6 °F 39.2 °F 30.2 in ENE 10.6 mph 14.9 mph 81% 0 in 0.00 W/m2 unknown
22:54 44.6 °F 39.2 °F 30.2 in ENE 8.7 mph 14.9 mph 82% 0 in 0.00 W/m2 unknown
22:59 44.6 °F 39.2 °F 30.2 in ENE 8.1 mph 13 mph 82% 0 in 0.00 W/m2 unknown
23:04 44.6 °F 39.2 °F 30.2 in East 6.8 mph 9.9 mph 83% 0 in 0.00 W/m2 unknown
23:09 44.6 °F 39.2 °F 30.2 in East 6.8 mph 9.9 mph 83% 0 in 0.00 W/m2 unknown
23:14 44.6 °F 39.2 °F 30.2 in East 7.5 mph 10.6 mph 84% 0 in 0.00 W/m2 unknown
23:19 44.6 °F 39.2 °F 30.2 in ESE 9.9 mph 14.3 mph 84% 0 in 0.00 W/m2 unknown
23:24 44.6 °F 39.2 °F 30.2 in East 11.2 mph 14.3 mph 83% 0 in 0.00 W/m2 unknown
23:29 44.6 °F 39.2 °F 30.2 in ESE 9.3 mph 14.3 mph 83% 0 in 0.00 W/m2 unknown
23:34 44.6 °F 39.2 °F 30.2 in ESE 11.2 mph 14.9 mph 83% 0 in 0.00 W/m2 unknown
23:39 44.6 °F 39.2 °F 30.2 in ESE 12.4 mph 16.2 mph 82% 0 in 0.00 W/m2 unknown
23:44 44.6 °F 39.2 °F 30.2 in ESE 11.8 mph 16.8 mph 83% 0 in 0.00 W/m2 unknown
23:49 42.8 °F 39.2 °F 30.3 in ESE 11.8 mph 17.4 mph 83% 0 in 0.00 W/m2 unknown
23:54 42.8 °F 39.2 °F 30.3 in ESE 9.3 mph 16.8 mph 83% 0 in 0.00 W/m2 unknown
23:59 42.8 °F 39.2 °F 30.3 in ESE 9.3 mph 13 mph 84% 0 in 0.00 W/m2 unknown
Stazione Meteorologica MeteoMincio Rivalta s/M (MN)
Con i complimenti di Weather Underground - 4 mb



GLOSSARIO METEOROLOGICO
Pressione atmosferica
Forza esercitata dall'atmosfera, in virtù del suo peso, su di una determinata superficie. Nonostante la sua natura impalpabile, l'aria ha il suo peso. Un metro cubo d'aria pesa 1300 g al livello del mare. Di conseguenza ogni porzione di atmosfera è influenzata dal peso degli strati sovrastanti. Al peso esercitato su una superficie unitaria, per esempio da una colonna d'aria che si estende fino ai limiti dell'atmosfera, viene dato il nome di pressione atmosferica. Mediamente il peso al livello del mare si aggira sui 1033 g/cm2.
L'unità di misura più utilizzata dai meteorologi per esprimerne il valore è il "millibar" (mbar), ma con la diffusione dell'uso del Sistema Internazionale anche in ambito meteorologico essa viene più comunemente espressa in "HectoPascal" (hPa) poichè si ha un'identità tra le due misure (1013,25 mbar = 1013,25 hPa). L'evoluzione della pressione atmosferica è uno dei fattori determinanti che permettono l'elaborazione delle previsioni meteo. Sotto i 1015 hPa si parla di "depressione" con conseguente brutto tempo, sopra questo valore invece si parla di "anticiclone" ed in genere di bel tempo. La pressione atmosferica diminuisce con l'aumentare della quota.
Share

Non seguire questo link o sarai bannato dal sito!